Regional Weather Roundup
Issued by NWS

Home | Current Version | Previous Version | Graphics & Text | Print | Product List | Glossary On
Versions: 1 2 3 4 5 6 7 8 9 10 11 12 13 14 15 16 17 18 19 20 21 22 23 24 25 26 27 28 29 30 31 32 33 34 35 36 37 38 39 40 41 42 43 44 45 46 47 48 49 50
000
ASUS43 KLOT 231703
RWRIL

ILLINOIS REGIONAL WEATHER ROUNDUP
NATIONAL WEATHER SERVICE CHICAGO/ROMEOVILLE IL
1200 PM CDT SUN APR 23 2017

NOTE: "FAIR" INDICATES FEW OR NO CLOUDS BELOW 12,000 FEET WITH NO
SIGNIFICANT WEATHER AND/OR OBSTRUCTIONS TO VISIBILITY.

* THESE STATIONS ARE NOT UNDER NWS QUALITY CONTROL. THEY ALSO MAY NOT
  REPORT WEATHER SUCH AS PRECIPITATION OR FOG.

ILZ001-002-007-009-015-016-024-231800-
NORTHWEST ILLINOIS

CITY           SKY/WX    TMP DP  RH WIND       PRES   REMARKS
MOLINE         SUNNY     67  33  28 NE7       30.12F
STERLING*      SUNNY     65  33  30 CALM      30.13F
SAVANNA*       SUNNY     65  36  34 CALM      30.12F
$$

ILZ003-004-008-010-011-017-018-231800-
NORTH CENTRAL ILLINOIS

CITY           SKY/WX    TMP DP  RH WIND       PRES   REMARKS
ROCKFORD       SUNNY     67  33  28 CALM      30.12F
FREEPORT*      SUNNY     65  35  32 NW7       30.14F
ROCHELLE*      SUNNY     64  36  34 N6        30.12F
DE KALB*       SUNNY     65  33  29 N9        30.12F
PERU*          SUNNY     63  29  27 N7        30.12F
$$

ILZ005-006-012>014-019>023-231800-
NORTHEAST ILLINOIS

CITY           SKY/WX    TMP DP  RH WIND       PRES   REMARKS
CHICAGO-OHARE  SUNNY     67  27  22 CALM      30.10F
CHICAGO-MIDWAY SUNNY     67  30  25 N9        30.11F
AURORA         SUNNY     66  31  27 VRB3      30.11F
LANSING*       SUNNY     64  33  31 NE6       30.12F
JOLIET*        SUNNY     65  33  29 N6        30.12S
WAUKEGAN       SUNNY     67  35  30 N8        30.09F
DUPAGE AIRPORT SUNNY     67  32  27 N6        30.10F
KANKAKEE*      SUNNY     67  28  23 NE6       30.11F
WHEELING       SUNNY     67  30  25 VRB6      30.11F
MORRIS*        SUNNY     65  29  26 CALM      30.11S
NORTHERLY ISL    N/A     55  40  56 E3          N/A
$$

LMZ740>746-231800-
SOUTHERN LAKE MICHIGAN

STATION/POSITION SKY/WX   TEMP    WIND        PRES    VSBY  WAVE
                          AIR SEA DIR/SP/G                  HT/PER
                          (F)     (DEG/KT/KT) (MB)    (MI)  (FT/S)
HARRISON CRIB              56     100/  5/  5   N/A
BURNHAM HARBOR             55      70/  4       N/A
CALUMET HARBOR             54      60/  6/  7 1019.5F
BURNS HARBOR               52      50/  5/  6 1020.7F
MICHIGAN CITY              48      10/  4/  4   N/A
ST. JOSEPH                 48 51  360/  2/  4 1021.0F         1
$$

ILZ025>027-034>036-040-047-049-050-058-095>099-231800-
WEST-CENTRAL ILLINOIS

CITY           SKY/WX    TMP DP  RH WIND       PRES   REMARKS
QUINCY         SUNNY     65  29  25 E8        30.12F
GALESBURG*     SUNNY     65  32  29 N8        30.12F
MACOMB*        SUNNY     65  31  28 NE9       30.14F
JACKSONVILLE*  SUNNY     63  32  30 N8G17     30.12F
PITTSFIELD*    SUNNY     63  35  34 NE10      30.13F
$$

ILZ028>032-037-038-041>044-048-051>054-059>061-231800-
CENTRAL ILLINOIS

CITY           SKY/WX    TMP DP  RH WIND       PRES   REMARKS
PONTIAC        SUNNY     65  27  23 NE10G16   30.11F
BLOOMINGTON    SUNNY     65  31  28 NE12      30.11F
DECATUR        SUNNY     65  38  36 N13       30.09F
PEORIA         SUNNY     65  31  28 E14       30.12F
LACON*         SUNNY     64  33  32 N10       30.11F
LINCOLN*       SUNNY     66  36  33 N10       30.10F
SPRINGFIELD    SUNNY     67  34  29 NE15      30.10F
TAYLORVILLE    SUNNY     65  31  28 NE14G20   30.09F
$$

ILZ033-039-045-046-055>057-062-063-231800-
EAST-CENTRAL ILLINOIS

CITY           SKY/WX    TMP DP  RH WIND       PRES   REMARKS
CHAMPAIGN      SUNNY     66  32  28 NE13      30.08F
RANTOUL*       SUNNY     65  32  28 N14       30.09F
MATTOON        SUNNY     64  33  31 NE17      30.06F
$$

ILZ079-100>102-231800-
SOUTHWEST ILLINOIS

CITY           SKY/WX    TMP DP  RH WIND       PRES   REMARKS
ALTON          SUNNY     63  32  31 NE15      30.09F
BELLEVILLE     SUNNY     64  35  33 N15       30.06F
CAHOKIA*       SUNNY     65  33  30 NE14      30.08F
SPARTA*        SUNNY     59  38  46 N13G18    30.07F
$$

ILZ064>066-069>071-074>076-080>082-084>086-088>090-092>094-231800-
SOUTH-CENTRAL ILLINOIS

CITY           SKY/WX    TMP DP  RH WIND       PRES   REMARKS
CARBONDALE     SUNNY     60  42  51 N17G26    30.01F
CAIRO*         SUNNY     60  44  55 N14G24    29.96F
EFFINGHAM*     SUNNY     63  34  33 N7G16     30.07F
MARION         SUNNY     61  43  51 N18G25    30.00F
MT. VERNON     SUNNY     61  38  42 NE15      30.03F
CENTRALIA*     SUNNY     62  38  42 NE17      30.04F
SALEM*         SUNNY     63  35  34 NE17      30.05F
METROPOLIS*    SUNNY     61  44  53 NE12G23   29.96F
$$

ILZ067-068-072-073-078-083-087-091-231800-
SOUTHEAST ILLINOIS

CITY           SKY/WX    TMP DP  RH WIND       PRES   REMARKS
LAWRENCEVILLE  SUNNY     65  35  33 NE17G29   30.01F
FLORA*         SUNNY     62  34  34 NE16G23   30.04F
FAIRFIELD*     SUNNY     61  37  42 N14       30.01F
HARRISBURG*    SUNNY     60  45  55 N15G25    30.00F
ROBINSON*      SUNNY     63  32  31 NE17G23   30.04F
CARMI*         SUNNY     59  43  53 N18G24    30.00F
$$

ABBREVIATIONS USED IN REMARKS
   TC - TEMPERATURE IN CELSIUS
  WCI - WIND CHILL INDEX
   HX - HEAT INDEX
  VSB - VISIBILITY
$$




USA.gov is the U.S. government's official web portal to all federal, state and local government web resources and services.